Content
SEND FEEDBACK

Daily
Averages
Monthly
Summary
United States of America

MARBLEHEAD, OHIO


Home > North America > United States > Ohio
Elevation: 630 feet     Latitude: 41 30N     Longitude: 082 42W

WEATHER
 
SELECT A DAY
Number of Records: 182,973;   Date Range: 10/8/98 - 9/29/14
 
SHARE

PRINT THIS DATA

[ ← Previous Day ]
WEATHER ALMANAC - DECEMBER 8, 2013
[ Next Day → ]
[ °C ]   °F
Weather ElementAverageHighLow
Temperature26.1 °F30.2 °F (7:00 pm)18 °F (1:53 am)
Dewpoint17.2 °F27 °F (11:53 pm)12 °F (1:53 am)
Humidity69.5 %88 % (11:53 pm)56 % (2:53 pm)
Barometer30.32 in30.58 in (2:53 am)30.01 in (11:35 pm)
Wind Speed7.3 mph11.5 mph (10:53 am)
Weather ElementAverage
Visibility9.1 mi
Wind DirectionESE (123.1 °)

Weather ElementTotal
Precipitation---
Heating Degree Days40.9 (Base 65)
Averaged from 26 records on December 8, 2013
WEATHER CONDITIONS BREAKOUT
WIND DIRECTION BREAKOUT
WEATHER BY HOUR - DECEMBER 8, 2013
[ °C ]   °F
Local TimeTemperatureDewpointHumidityBarometerVisibilityWind DirectionWind SpeedGust SpeedPrecipitationEventsConditions
1:53 AM18.0 °F12.0 °F78 %30.57 in10.0 miSSE (160°)4.6 mphPartly Cloudy
2:53 AM19.0 °F12.0 °F74 %30.58 in9.0 miSSW (200°)4.6 mphClear
3:53 AM18.0 °F12.9 °F81 %30.56 in9.0 miCalmClear
4:53 AM19.0 °F14.0 °F81 %30.54 in8.0 miSSE (160°)3.5 mphClear
5:53 AM19.9 °F14.0 °F78 %30.54 in8.0 miSouth (170°)5.8 mphClear
6:53 AM21.0 °F14.0 °F74 %30.56 in10.0 miCalmClear
7:53 AM21.9 °F14.0 °F72 %30.52 in10.0 miESE (120°)5.8 mphPartly Cloudy
8:53 AM24.1 °F14.0 °F65 %30.51 in10.0 miESE (120°)4.6 mphOvercast
9:53 AM25.0 °F14.0 °F63 %30.50 in10.0 miESE (120°)8.1 mphOvercast
10:53 AM26.1 °F14.0 °F60 %30.45 in10.0 miEast (100°)11.5 mphOvercast
11:53 AM26.1 °F14.0 °F60 %30.43 in10.0 miESE (120°)9.2 mphOvercast
12:53 PM27.0 °F14.0 °F58 %30.38 in10.0 miESE (110°)6.9 mph0.00 inOvercast
1:53 PM28.0 °F15.1 °F58 %30.34 in10.0 miEast (90°)10.4 mphOvercast
2:53 PM28.0 °F14.0 °F56 %30.30 in10.0 miEast (100°)9.2 mphOvercast
3:53 PM28.9 °F15.1 °F56 %30.27 in10.0 miEast (100°)8.1 mphOvercast
4:53 PM28.9 °F16.0 °F58 %30.23 in10.0 miEast (100°)9.2 mphOvercast
5:53 PM28.9 °F17.1 °F61 %30.19 in10.0 miESE (110°)8.1 mphOvercast
6:53 PM30.0 °F19.0 °F64 %30.18 in10.0 miSE (130°)8.1 mphOvercast
7:00 PM30.2 °F19.4 °F64 %30.14 in10.0 miSE (130°)10.4 mphOvercast
7:53 PM30.0 °F21.0 °F69 %30.17 in10.0 miESE (120°)8.1 mphOvercast
8:53 PM30.0 °F21.9 °F72 %30.11 in10.0 miSSE (150°)10.4 mphOvercast
9:24 PM30.2 °F23.0 °F75 %30.07 in10.0 miSSE (160°)8.1 mphOvercast
9:53 PM30.0 °F23.0 °F75 %30.08 in10.0 miSSE (150°)9.2 mphOvercast
10:53 PM30.0 °F25.0 °F82 %30.06 in6.0 miSSE (160°)8.1 mphHaze
11:35 PM30.2 °F26.6 °F86 %30.01 in2.5 miSSE (160°)9.2 mphOvercast
11:53 PM30.0 °F27.0 °F88 %30.03 in3.0 miSSE (160°)8.1 mphOvercast
Hourly data recorded from KLPR, located miles away from Marblehead, Ohio







STORIES FROM OUR PARTNERS